sat.trackr.live / text

‹ back to catalog

STARLINK-5490

NORAD 57254 · 2023-094AN

PAYLOAD ACTIVE UNKNOWN

§ Identity

Operator
Country
US
Launch date
2023-07-07
Launch site
AFWTR
Launch vehicle
Mass (kg)
RCS (m²)

Purposes: comms

External: N2YO · Heavens-Above · Gunter

§ Orbital elements

Epoch: 2026-05-24T19:16:02.745120Z

Period
94.27 min
Inclination
43.0016°
Eccentricity
0.0001145
Mean motion
15.27575493 rev/d
Perigee alt
482.3 km
Apogee alt
483.8 km
Semi-major
6,861.2 km
B*
1.9961e-5
RAAN
309.7685°
Arg perigee
255.9170°
Mean anomaly
104.1555°
Rev number
15,888

§ Raw data

STARLINK-54901 57254U 23094AN  26144.80280955  .00000287  00000+0  19961-4 0  99912 57254  43.0016 309.7685 0001145 255.9170 104.1555 15.27575493158886

JSON: /api/v1/satellites/57254 · /tle

For live sub-satellite position, see the globe view (requires WebGL).

§ Visibility from observer

Set your observer location to see the next 7 days of passes ≥ 10°. The values pass through the URL so the page stays shareable.

No JS? Fill the form by hand. The geolocation button needs JavaScript.